SCP
0 0 0 0 0 0 2 5 3 3 3 5 3 3 3 3 2 4 3 0 0 0 0 0 4 7 5 3 1 0 0 0 0 0 0 0 0 0 0 0 0 0 0
-0 -0 0 0 0 0 2 4 5 6 5 4 7 6 4 2 8 3 1 0 0 0 0 1 3 7 7 4 2 0 0 0 0 0 0 0 0 0 0 0 0 0 0
-0 -0 0 -0 0 0 1 1 3 2 4 5 6 8 10 10 10 1 0 0 -0 0 0 1 1 2 5 4 0 0 0 0 0 0 0 0 0 0 0 0 0 0 0
-0 -0 -0 0 -0 -0 0 0 0 0 -0 2 3 2 6 5 5 3 2 0 0 1 2 3 5 7 6 4 1 1 0 0 0 0 0 0 0 0 0 0 0 0 0
-0 0 0 0 1 -0 0 0 1 -0 1 2 1 2 1 3 1 2 2 3 2 2 4 5 6 4 4 1 0 0 0 0 0 0 0 0 0 0 0 0 0 0 0
0 0 1 1 0 1 2 0 0 1 2 1 2 1 -0 0 2 2 3 2 3 6 7 6 5 3 3 1 0 0 0 0 0 0 0 0 0 0 0 0 0 0 0
0 0 0 1 1 1 1 2 2 2 3 2 2 2 2 2 3 2 2 1 1 2 2 2 1 1 1 0 0 0 0 0 0 0 0 0 0 0 0 0 0 0 0
0 0 0 0 0 1 1 1 2 3 3 2 2 3 3 2 2 1 1 1 1 0 0 0 0 0 0 0 0 0 0 0 0 0 0 0 0 0 0 0 0 0 0
0 0 0 0 0 0 0 1 1 2 2 1 2 1 1 1 1 2 1 0 0 0 0 0 0 0 0 0 0 0 0 0 0 0 0 0 0 0 0 0 0 0 0
0 0 0 0 0 0 0 1 1 2 1 1 1 1 1 1 1 1 0 0 0 0 0 0 0 0 0 0 0 0 0 0 0 0 0 0 0 0 0 0 0 0 0
0 0 0 0 0 0 0 0 0 1 1 1 0 1 0 1 1 0 0 0 0 0 0 0 0 0 0 0 0 0 0 0 0 0 0 0 0 0 0 0 0 0 0
0 0 0 0 0 0 0 0 0 0 -0 -0 -0 0 0 1 1 1 0 0 0 0 0 0 0 0 0 0 0 0 0 0 0 0 0 0 0 0 0 0 0 0 0
0 0 0 0 0 0 0 0 -0 -0 -0 -0 -0 0 0 1 0 0 0 0 0 0 0 0 0 0 0 0 0 0 0 0 0 0 0 0 0 0 0 0 0 0 0
0 0 0 0 0 0 0 0 0 0 0 0 0 0 0 0 1 0 0 0 0 0 0 0 0 0 0 0 0 0 0 0 0 0 0 0 0 0 0 0 0 0 0
0 0 0 0 0 0 0 0 0 0 0 0 0 0 1 1 0 1 1 0 0 0 0 0 0 0 0 0 0 0 0 0 0 0 0 0 0 0 0 0 0 0 0
0 0 0 0 0 0 0 0 0 0 0 0 0 0 0 1 1 1 1 1 0 0 0 0 0 0 0 0 0 0 0 0 0 0 0 0 0 0 0 0 0 0 0
0 0 0 0 0 0 0 0 0 0 0 0 0 0 0 0 0 0 0 1 0 0 0 0 0 0 0 0 0 0 0 0 0 0 0 0 0 0 0 0 0 0 0
0 0 0 0 0 0 0 0 0 0 0 0 0 -0 0 0 0 0 0 0 0 0 0 0 0 0 0 0 0 0 0 0 0 0 0 0 0 0 0 0 0 0 0
0 0 0 0 0 0 0 0 0 0 0 0 0 0 0 -0 -0 0 0 0 0 0 0 0 0 0 0 0 0 0 0 0 0 0 0 0 0 0 0 0 0 0 0
0 0 0 0 0 0 0 0 0 0 0 0 0 0 0 0 0 0 0 0 0 0 0 0 0 0 0 -0 0 0 0 0 0 0 0 0 0 0 0 0 0 -0 -0
0 0 0 0 0 0 0 0 0 0 0 0 0 0 0 0 0 0 0 0 0 0 0 0 0 0 0 -0 0 0 0 0 0 0 0 0 0 -0 -0 -0 0 0 0
0 0 0 0 0 0 0 0 0 0 0 0 -0 0 0 0 0 0 0 0 0 0 0 0 0 -0 0 0 0 0 0 0 0 0 0 0 -0 -0 -0 -0 -0 0 0
0 0 0 0 0 0 0 0 0 0 0 0 0 0 0 0 0 -0 -0 0 -0 0 0 0 0 0 0 0 0 0 0 0 0 0 -0 -0 -0 -0 -0 -0 -0 0 0
0 0 0 0 0 0 0 0 0 0 0 0 0 0 0 0 0 0 0 0 0 0 0 0 0 0 0 0 0 -0 -0 -0 0 0 0 -0 -0 -0 0 0 0 0 0
0 0 0 0 0 0 0 0 0 0 0 -0 0 0 0 0 0 0 0 0 0 0 0 0 0 0 0 0 0 0 -0 0 0 -0 0 0 0 0 0 0 0 0 0
0 0 0 0 -0 0 0 0 0 0 0 0 0 0 0 0 0 0 0 -0 0 0 0 0 0 0 0 -0 -0 -0 0 -0 -0 -0 0 0 0 0 0 0 0 0 0
Wind_Speed_500mb
42 47 39 24 18 19 25 47 44 45 52 34 45 47 53 45 44 47 50 59 49 73 67 59 63 74 76 83 84 85 95 83 81 75 91 80 63 48 52 46 47 43 37
35 42 44 35 25 15 14 9 39 36 42 52 48 36 33 34 51 54 55 34 52 82 88 55 63 70 70 86 99 98 95 82 68 67 43 34 29 30 24 28 30 29 27
54 46 47 53 39 24 11 11 15 32 40 37 35 40 47 47 45 41 30 40 73 85 65 58 58 78 82 86 91 100 98 82 71 42 33 11 16 16 14 14 22 25 33
46 51 49 48 50 51 12 2 9 12 24 36 43 38 44 50 53 46 50 63 56 53 45 45 52 60 65 74 72 75 85 77 56 45 36 51 38 18 16 14 24 30 41
47 49 49 47 51 49 50 47 22 20 25 10 29 31 42 44 35 39 37 26 37 41 40 42 47 56 60 62 64 73 74 67 65 49 36 34 35 27 29 31 26 20 30
47 46 49 57 48 48 51 47 46 37 22 8 14 20 25 28 27 31 25 26 27 25 29 33 45 45 53 56 56 73 69 56 62 45 39 53 32 19 27 34 36 29 26
42 47 49 50 54 47 38 39 26 29 20 11 6 5 8 11 13 28 30 38 35 35 39 40 36 35 38 35 50 45 39 25 8 18 18 18 26 26 30 34 39 40 32
41 42 45 48 49 52 48 39 37 33 33 23 24 25 24 24 16 29 33 22 35 36 34 27 23 21 25 31 34 32 10 15 10 14 13 26 30 20 21 26 28 36 44
37 39 39 41 46 49 56 51 36 28 24 30 31 36 40 39 37 25 26 31 34 35 32 23 12 6 4 7 12 4 1 2 2 7 13 16 13 22 28 36 36 36 47
33 34 37 42 41 42 45 47 49 48 43 35 36 39 38 35 23 29 31 34 32 26 17 13 14 12 11 6 7 8 5 8 8 7 14 21 26 33 34 29 32 33 33
31 31 32 35 38 40 42 46 46 48 52 50 42 34 34 27 32 33 39 31 22 14 10 9 8 8 5 6 4 3 6 11 15 18 22 26 26 29 31 30 40 46 52
22 29 33 35 36 40 44 45 48 50 52 60 49 44 35 34 41 36 26 24 21 13 12 14 16 15 15 17 18 16 11 12 16 21 24 23 22 29 35 38 37 37 35
24 24 29 34 41 42 48 49 50 54 56 54 57 55 56 41 37 36 24 19 11 12 7 6 4 4 7 7 5 7 7 6 11 22 30 34 35 40 44 42 47 50 55
21 23 27 34 40 42 49 52 53 59 61 60 58 57 63 47 46 32 30 19 12 11 9 8 6 9 10 13 16 20 22 21 19 28 34 40 40 43 46 47 52 54 60
36 35 38 44 46 47 49 51 56 59 65 72 66 65 60 57 48 42 35 27 23 15 13 10 16 16 14 19 19 20 23 24 20 29 35 40 42 47 52 49 49 49 45
37 49 55 53 52 50 51 52 55 56 65 65 75 63 65 58 58 48 45 32 27 20 16 20 16 13 19 20 26 29 30 27 26 32 34 32 33 43 45 43 36 34 39
46 51 56 59 59 58 60 64 59 65 68 60 62 62 54 49 53 45 50 40 38 29 15 10 6 18 28 28 35 35 34 29 32 36 41 42 45 39 33 38 23 31 34
55 54 56 61 65 67 62 57 54 69 59 53 52 60 64 60 56 53 44 33 14 30 25 8 13 26 30 35 43 32 17 22 26 33 35 28 33 36 43 32 18 28 23
48 50 49 58 58 51 47 50 53 52 60 62 59 58 79 67 61 34 14 9 13 28 31 22 19 26 31 36 52 19 15 19 19 25 26 25 34 38 30 21 20 21 21
51 49 52 50 47 54 39 48 51 51 51 58 69 77 60 51 20 4 18 19 14 11 14 16 23 26 28 45 46 22 14 14 11 19 24 31 36 30 21 22 20 17 21
49 52 48 50 49 48 59 47 59 54 58 61 63 51 40 12 16 11 13 14 25 32 17 10 6 18 36 46 37 34 29 25 22 20 22 28 34 24 20 17 17 23 25
53 50 48 46 46 50 34 47 58 50 55 64 61 28 18 13 8 7 16 18 26 28 13 13 20 30 31 35 33 42 45 25 18 21 23 25 28 24 25 17 14 19 23
53 49 48 52 45 42 47 65 48 47 46 68 57 28 17 15 17 23 24 17 21 24 28 21 21 19 23 32 24 38 39 33 27 29 29 27 23 22 18 19 18 23 29
51 52 49 45 54 54 40 44 42 46 44 47 34 32 30 27 33 28 21 17 12 17 11 14 19 14 24 33 35 28 27 39 36 34 38 42 34 27 29 27 26 28 28
48 52 53 51 53 43 49 47 35 43 41 34 29 28 27 19 18 29 36 36 33 25 18 17 22 19 30 40 47 43 39 35 36 36 41 48 49 48 45 39 33 32 34
53 50 49 55 41 42 32 49 34 41 30 28 31 19 15 13 11 27 34 44 45 45 46 41 33 35 39 43 41 43 44 38 35 37 42 44 44 42 40 37 35 33 39
Wind_Direction_500mb
36 20 2 324 261 244 241 225 219 218 212 218 234 239 231 238 242 236 237 235 240 296 302 252 248 254 256 259 261 261 268 283 268 265 268 279 267 271 275 262 258 258 257
75 49 24 28 26 320 269 243 223 221 227 230 224 235 248 247 236 235 238 245 259 290 289 270 244 253 264 264 267 270 272 265 256 261 283 274 275 270 276 259 255 247 240
36 43 38 28 38 39 24 286 259 247 247 245 244 238 248 248 246 260 265 281 264 276 265 266 259 260 270 271 272 270 271 261 248 263 252 275 264 292 302 268 263 241 247
40 34 38 34 28 30 33 238 245 255 270 261 245 233 246 248 251 256 279 282 260 283 287 288 275 276 271 274 277 276 266 252 240 256 251 244 259 291 303 350 279 254 236
48 31 32 35 36 31 20 26 9 265 240 265 254 250 255 250 310 320 288 298 310 292 284 274 275 276 276 279 277 272 263 256 235 244 258 259 267 280 268 283 289 281 271
47 34 25 36 32 27 33 30 20 24 27 330 325 306 277 283 299 296 306 288 278 305 285 273 287 278 280 283 276 283 254 238 242 246 282 273 262 269 252 262 277 276 283
43 37 30 24 22 21 18 31 52 45 49 64 22 345 304 279 328 306 284 285 294 278 274 284 282 276 279 274 267 248 233 259 2 264 290 300 303 288 289 293 295 291 288
41 42 32 30 24 20 20 24 41 49 39 10 3 343 333 324 313 298 313 321 306 315 308 303 286 279 266 276 264 277 247 281 260 234 218 251 250 252 286 298 298 302 295
39 34 40 32 28 27 24 25 18 18 2 351 351 346 339 329 335 335 332 327 330 333 328 325 338 17 73 123 144 308 8 52 304 286 292 293 303 269 276 277 282 291 289
34 34 35 33 27 23 19 25 22 19 11 1 355 355 344 341 326 324 331 339 345 348 4 43 40 63 77 64 99 91 28 4 328 300 275 278 286 292 295 281 290 283 302
20 28 28 28 22 17 17 16 13 4 9 4 359 355 345 330 319 333 333 342 346 2 14 28 44 63 59 71 72 51 339 335 323 299 293 290 296 290 283 281 275 286 296
20 13 15 13 10 9 8 5 0 4 358 1 356 350 337 334 325 323 322 337 343 357 27 48 48 45 25 15 22 17 344 306 301 306 296 286 280 276 281 289 289 287 281
27 8 4 0 359 0 360 358 356 355 353 349 341 341 340 321 317 316 314 324 317 328 0 354 351 144 198 194 198 239 271 296 333 305 298 293 296 294 293 295 293 291 289
358 5 355 353 351 357 356 348 344 339 337 343 338 336 329 330 323 307 304 289 280 267 238 220 208 234 256 275 286 289 296 293 302 319 316 301 299 295 296 296 296 298 301
351 355 355 352 346 342 338 334 334 334 331 332 330 331 331 318 325 311 301 282 272 248 231 222 210 236 274 309 309 313 314 311 304 296 291 301 308 304 304 306 309 316 321
356 345 347 343 336 333 333 333 332 331 331 326 326 321 323 321 319 313 302 285 271 257 227 217 240 285 322 334 327 324 327 323 297 293 301 312 309 305 311 312 319 332 330
347 336 333 329 330 329 328 328 325 328 323 321 325 324 322 329 321 314 311 286 261 256 184 99 314 343 343 344 325 326 320 319 311 306 309 315 312 319 328 322 334 321 327
337 335 334 330 327 323 320 320 320 324 321 323 330 326 317 319 319 314 306 358 103 143 130 67 350 350 327 328 338 335 356 338 335 322 329 326 322 323 321 331 347 329 333
336 332 330 327 324 330 329 325 327 321 317 332 333 320 320 324 325 333 344 101 89 33 29 10 343 342 336 336 345 357 45 329 330 330 324 324 325 330 335 336 340 340 338
329 330 330 330 338 343 339 340 343 344 342 334 329 326 325 323 337 50 97 95 84 41 42 5 330 322 334 342 348 8 354 330 4 357 338 328 326 330 350 359 4 355 5
325 331 333 335 341 337 340 335 333 339 340 348 350 338 335 31 61 77 76 71 68 55 50 227 117 4 351 351 7 25 20 26 20 355 341 331 335 359 11 15 12 22 21
328 329 333 333 333 342 352 358 345 340 345 4 5 355 26 60 55 89 49 72 56 41 16 57 34 24 11 349 14 21 15 16 11 0 354 357 10 18 31 39 52 44 35
322 326 327 336 338 328 345 339 325 338 357 359 350 348 357 16 60 73 68 73 65 54 67 59 49 23 349 351 45 31 10 21 34 31 16 11 13 17 40 53 51 51 40
343 344 335 336 333 328 346 352 337 349 350 358 6 35 42 56 51 41 48 43 86 58 43 58 65 26 353 40 50 54 41 57 45 36 39 42 40 55 54 54 62 53 27
335 332 334 327 330 325 335 336 338 350 1 30 34 52 59 56 64 60 54 40 38 34 48 53 60 55 55 57 57 53 51 45 40 44 44 48 51 52 54 58 55 52 49
324 323 320 317 317 334 340 339 345 2 16 32 39 38 23 41 50 50 42 42 55 56 56 54 59 61 73 66 55 51 48 43 46 42 45 46 47 54 55 53 54 46 34
Wind_Speed_850mb
42 47 39 24 18 19 25 47 44 45 52 34 45 47 53 45 44 47 50 59 49 73 67 59 63 74 76 83 84 85 95 83 81 75 91 80 63 48 52 46 47 43 37
35 42 44 35 25 15 14 9 39 36 42 52 48 36 33 34 51 54 55 34 52 82 88 55 63 70 70 86 99 98 95 82 68 67 43 34 29 30 24 28 30 29 27
54 46 47 53 39 24 11 11 15 32 40 37 35 40 47 47 45 41 30 40 73 85 65 58 58 78 82 86 91 100 98 82 71 42 33 11 16 16 14 14 22 25 33
46 51 49 48 50 51 12 2 9 12 24 36 43 38 44 50 53 46 50 63 56 53 45 45 52 60 65 74 72 75 85 77 56 45 36 51 38 18 16 14 24 30 41
47 49 49 47 51 49 50 47 22 20 25 10 29 31 42 44 35 39 37 26 37 41 40 42 47 56 60 62 64 73 74 67 65 49 36 34 35 27 29 31 26 20 30
47 46 49 57 48 48 51 47 46 37 22 8 14 20 25 28 27 31 25 26 27 25 29 33 45 45 53 56 56 73 69 56 62 45 39 53 32 19 27 34 36 29 26
42 47 49 50 54 47 38 39 26 29 20 11 6 5 8 11 13 28 30 38 35 35 39 40 36 35 38 35 50 45 39 25 8 18 18 18 26 26 30 34 39 40 32
41 42 45 48 49 52 48 39 37 33 33 23 24 25 24 24 16 29 33 22 35 36 34 27 23 21 25 31 34 32 10 15 10 14 13 26 30 20 21 26 28 36 44
37 39 39 41 46 49 56 51 36 28 24 30 31 36 40 39 37 25 26 31 34 35 32 23 12 6 4 7 12 4 1 2 2 7 13 16 13 22 28 36 36 36 47
33 34 37 42 41 42 45 47 49 48 43 35 36 39 38 35 23 29 31 34 32 26 17 13 14 12 11 6 7 8 5 8 8 7 14 21 26 33 34 29 32 33 33
31 31 32 35 38 40 42 46 46 48 52 50 42 34 34 27 32 33 39 31 22 14 10 9 8 8 5 6 4 3 6 11 15 18 22 26 26 29 31 30 40 46 52
22 29 33 35 36 40 44 45 48 50 52 60 49 44 35 34 41 36 26 24 21 13 12 14 16 15 15 17 18 16 11 12 16 21 24 23 22 29 35 38 37 37 35
24 24 29 34 41 42 48 49 50 54 56 54 57 55 56 41 37 36 24 19 11 12 7 6 4 4 7 7 5 7 7 6 11 22 30 34 35 40 44 42 47 50 55
21 23 27 34 40 42 49 52 53 59 61 60 58 57 63 47 46 32 30 19 12 11 9 8 6 9 10 13 16 20 22 21 19 28 34 40 40 43 46 47 52 54 60
36 35 38 44 46 47 49 51 56 59 65 72 66 65 60 57 48 42 35 27 23 15 13 10 16 16 14 19 19 20 23 24 20 29 35 40 42 47 52 49 49 49 45
37 49 55 53 52 50 51 52 55 56 65 65 75 63 65 58 58 48 45 32 27 20 16 20 16 13 19 20 26 29 30 27 26 32 34 32 33 43 45 43 36 34 39
46 51 56 59 59 58 60 64 59 65 68 60 62 62 54 49 53 45 50 40 38 29 15 10 6 18 28 28 35 35 34 29 32 36 41 42 45 39 33 38 23 31 34
55 54 56 61 65 67 62 57 54 69 59 53 52 60 64 60 56 53 44 33 14 30 25 8 13 26 30 35 43 32 17 22 26 33 35 28 33 36 43 32 18 28 23
48 50 49 58 58 51 47 50 53 52 60 62 59 58 79 67 61 34 14 9 13 28 31 22 19 26 31 36 52 19 15 19 19 25 26 25 34 38 30 21 20 21 21
51 49 52 50 47 54 39 48 51 51 51 58 69 77 60 51 20 4 18 19 14 11 14 16 23 26 28 45 46 22 14 14 11 19 24 31 36 30 21 22 20 17 21
49 52 48 50 49 48 59 47 59 54 58 61 63 51 40 12 16 11 13 14 25 32 17 10 6 18 36 46 37 34 29 25 22 20 22 28 34 24 20 17 17 23 25
53 50 48 46 46 50 34 47 58 50 55 64 61 28 18 13 8 7 16 18 26 28 13 13 20 30 31 35 33 42 45 25 18 21 23 25 28 24 25 17 14 19 23
53 49 48 52 45 42 47 65 48 47 46 68 57 28 17 15 17 23 24 17 21 24 28 21 21 19 23 32 24 38 39 33 27 29 29 27 23 22 18 19 18 23 29
51 52 49 45 54 54 40 44 42 46 44 47 34 32 30 27 33 28 21 17 12 17 11 14 19 14 24 33 35 28 27 39 36 34 38 42 34 27 29 27 26 28 28
48 52 53 51 53 43 49 47 35 43 41 34 29 28 27 19 18 29 36 36 33 25 18 17 22 19 30 40 47 43 39 35 36 36 41 48 49 48 45 39 33 32 34
53 50 49 55 41 42 32 49 34 41 30 28 31 19 15 13 11 27 34 44 45 45 46 41 33 35 39 43 41 43 44 38 35 37 42 44 44 42 40 37 35 33 39
Wind_Direction_850mb
36 20 2 324 261 244 241 225 219 218 212 218 234 239 231 238 242 236 237 235 240 296 302 252 248 254 256 259 261 261 268 283 268 265 268 279 267 271 275 262 258 258 257
75 49 24 28 26 320 269 243 223 221 227 230 224 235 248 247 236 235 238 245 259 290 289 270 244 253 264 264 267 270 272 265 256 261 283 274 275 270 276 259 255 247 240
36 43 38 28 38 39 24 286 259 247 247 245 244 238 248 248 246 260 265 281 264 276 265 266 259 260 270 271 272 270 271 261 248 263 252 275 264 292 302 268 263 241 247
40 34 38 34 28 30 33 238 245 255 270 261 245 233 246 248 251 256 279 282 260 283 287 288 275 276 271 274 277 276 266 252 240 256 251 244 259 291 303 350 279 254 236
48 31 32 35 36 31 20 26 9 265 240 265 254 250 255 250 310 320 288 298 310 292 284 274 275 276 276 279 277 272 263 256 235 244 258 259 267 280 268 283 289 281 271
47 34 25 36 32 27 33 30 20 24 27 330 325 306 277 283 299 296 306 288 278 305 285 273 287 278 280 283 276 283 254 238 242 246 282 273 262 269 252 262 277 276 283
43 37 30 24 22 21 18 31 52 45 49 64 22 345 304 279 328 306 284 285 294 278 274 284 282 276 279 274 267 248 233 259 2 264 290 300 303 288 289 293 295 291 288
41 42 32 30 24 20 20 24 41 49 39 10 3 343 333 324 313 298 313 321 306 315 308 303 286 279 266 276 264 277 247 281 260 234 218 251 250 252 286 298 298 302 295
39 34 40 32 28 27 24 25 18 18 2 351 351 346 339 329 335 335 332 327 330 333 328 325 338 17 73 123 144 308 8 52 304 286 292 293 303 269 276 277 282 291 289
34 34 35 33 27 23 19 25 22 19 11 1 355 355 344 341 326 324 331 339 345 348 4 43 40 63 77 64 99 91 28 4 328 300 275 278 286 292 295 281 290 283 302
20 28 28 28 22 17 17 16 13 4 9 4 359 355 345 330 319 333 333 342 346 2 14 28 44 63 59 71 72 51 339 335 323 299 293 290 296 290 283 281 275 286 296
20 13 15 13 10 9 8 5 0 4 358 1 356 350 337 334 325 323 322 337 343 357 27 48 48 45 25 15 22 17 344 306 301 306 296 286 280 276 281 289 289 287 281
27 8 4 0 359 0 360 358 356 355 353 349 341 341 340 321 317 316 314 324 317 328 0 354 351 144 198 194 198 239 271 296 333 305 298 293 296 294 293 295 293 291 289
358 5 355 353 351 357 356 348 344 339 337 343 338 336 329 330 323 307 304 289 280 267 238 220 208 234 256 275 286 289 296 293 302 319 316 301 299 295 296 296 296 298 301
351 355 355 352 346 342 338 334 334 334 331 332 330 331 331 318 325 311 301 282 272 248 231 222 210 236 274 309 309 313 314 311 304 296 291 301 308 304 304 306 309 316 321
356 345 347 343 336 333 333 333 332 331 331 326 326 321 323 321 319 313 302 285 271 257 227 217 240 285 322 334 327 324 327 323 297 293 301 312 309 305 311 312 319 332 330
347 336 333 329 330 329 328 328 325 328 323 321 325 324 322 329 321 314 311 286 261 256 184 99 314 343 343 344 325 326 320 319 311 306 309 315 312 319 328 322 334 321 327
337 335 334 330 327 323 320 320 320 324 321 323 330 326 317 319 319 314 306 358 103 143 130 67 350 350 327 328 338 335 356 338 335 322 329 326 322 323 321 331 347 329 333
336 332 330 327 324 330 329 325 327 321 317 332 333 320 320 324 325 333 344 101 89 33 29 10 343 342 336 336 345 357 45 329 330 330 324 324 325 330 335 336 340 340 338
329 330 330 330 338 343 339 340 343 344 342 334 329 326 325 323 337 50 97 95 84 41 42 5 330 322 334 342 348 8 354 330 4 357 338 328 326 330 350 359 4 355 5
325 331 333 335 341 337 340 335 333 339 340 348 350 338 335 31 61 77 76 71 68 55 50 227 117 4 351 351 7 25 20 26 20 355 341 331 335 359 11 15 12 22 21
328 329 333 333 333 342 352 358 345 340 345 4 5 355 26 60 55 89 49 72 56 41 16 57 34 24 11 349 14 21 15 16 11 0 354 357 10 18 31 39 52 44 35
322 326 327 336 338 328 345 339 325 338 357 359 350 348 357 16 60 73 68 73 65 54 67 59 49 23 349 351 45 31 10 21 34 31 16 11 13 17 40 53 51 51 40
343 344 335 336 333 328 346 352 337 349 350 358 6 35 42 56 51 41 48 43 86 58 43 58 65 26 353 40 50 54 41 57 45 36 39 42 40 55 54 54 62 53 27
335 332 334 327 330 325 335 336 338 350 1 30 34 52 59 56 64 60 54 40 38 34 48 53 60 55 55 57 57 53 51 45 40 44 44 48 51 52 54 58 55 52 49
324 323 320 317 317 334 340 339 345 2 16 32 39 38 23 41 50 50 42 42 55 56 56 54 59 61 73 66 55 51 48 43 46 42 45 46 47 54 55 53 54 46 34